Showing default

WEINA 1A, 43169

Orbit data source: Space-Track

WEINA 1A, 43169 is a payload satellite owned by Weina (CN) in LEO that was launched on Thu, 25 Jan 2018 UTC via a CHANG ZHENG 2C launch vehicle from the Xichang Space Center, China (XSC). Payload-class satellites include a variety of spacecraft equipped with specific instruments for various scientific and technological missions. These include communications satellites like Starlink; space stations such as the ISS; scientific satellites like the Hubble; Earth observation satellites from companies like Planet Labs, Umbra, and HawkEye 360; GPS; miniature CubeSats for education and research; and military/defense satellites.

Loading next visibility...
Identifier
43169, 2018-011A
Orbit
LEO
Country
Flag of CNCN / PRC
Related business
Manufacturer
SECM
Mission
Operational Defense Technology
Bus & Motor
Unknown
Mass
~5 kg wet, ~5 kg dry
Launch date (UTC)
2018-01-25 (8 years ago)
Launch vehicle
CHANG ZHENG 2C
Launch site
Xichang Space Center, China (XSC)
Object type
Payload
Rocket body
Debris
Shape & HBR
Box, 0.1 m
Radar Cross Section
0.025 m², Medium (>0.1 m² and < 1m²)

Expand to show TLE details & history
Last TLE update: 1 day ago

TLE from 1 day ago
0 WEINA 1A
1 43169U 18011A   25258.67834616  .00002697  00000-0  21950-3 0  9991
2 43169  34.9969  28.5638 0002418 180.9282 179.1421 14.99172971416873
Epoch: 2025-09-15T16:16Z
TLE epoch observation values (Epoch: 2025-09-15T16:16:49.108Z)
Latitude
-0°
Longitude
149.47963°
Altitude
570.048 km
Speed
7.577 km/s
True Right ascension
01h 54m 15s
True Declination
0° 00' 00"
Sunlit
Object was in full shadow at epoch
Visualization orbit readout
Latitude
Unknown
Longitude
Unknown
Altitude
Unknown
Speed
Unknown
Apparent Right ascension
Unknown
Apparent Declination
Unknown
Sunlit
N/A
Visualization observer readout
Local Sidereal Time
12:42:25
Azimuth
Unknown
Elevation
Unknown
Doppler factor
Unknown
Orbital elements
Apogee altitude
574.348 km
Perigee altitude
570.986 km
Semi-major axis
6,950.804 km
Eccentricity
0.00024
Inclination
34.9969°
RAAN
28.5638°
Arg. of periapsis
180.9282°
True anomaly
179.14251°
Mean anomaly
179.1421°
Eccentric anomaly
179.14231°
Mean motion
3.74533 °/min
Orbital period
96.12 mins
BSTAR
0.0002195
Loading maneuver chart data...
Computing Atmospheric mass density...
Loading historical data...
Loading historical data...
Loading historical data...
Loading historical data...
Loading historical data...
Loading historical data...
Loading historical data...
Other satellites on launch #11 in the year 2018 (2018-01-25 UTC)

Documentation

Showing up to 5 results
|